Weather in Atemar

Russia / Republic of Mordovia     54°10′57″N   45°24′00″E
temp.,
°C
wind,
m/s
gust,
m/s
humid.,
%
clouds,
%
prec.,
mm/h
press.,
hPa
HPBL,
m
16 october, sat
sat1600:00+4sw411725 0.0 1022308
03:00+3sw410780 0.0 1022222
06:00+2ssw410825 0.0 1023192
09:00+6sw611659 0.0 1022445
12:00+10sw794610 0.0 10211006
15:00+11sw68455 0.0 10201110
18:00+7s4105819 0.0 1020233
21:00+6ssw41358100 0.0 1019325
17 october, sun
sun1700:00+7ssw51359100 0.0 1018371
03:00+6ssw4106669 0.0 1018242
06:00+6ssw4107010 0.0 1017226
09:00+9sw5106680 0.0 1017525
12:00+12sw685169 0.0 10161078
15:00+13wsw585052 0.0 10151406
18:00+8wsw226848 0.0 101517
21:00+7ssw227434 0.0 101520
18 october, mon
mon1800:00+6sw2378100 0.0 101454
03:00+5sw2290100 0.0 101429
06:00+4sw2289100 0.0 101336
09:00+7sw4772100 0.0 1013313
12:00+10wsw576083 0.0 1011998
15:00+10wsw685235 0.0 10101476
18:00+7sw3963100 0.0 1010214
21:00+6wsw51166100 0.0 1010361
19 october, tue
tue1900:00+7w5872100 0.0 1010650
03:00+4wnw3584100 0.0 1011216
06:00+3w2383100 0.0 1011111
09:00+5w3565100 0.0 1011418
12:00+7w4559100 0.0 10111248
15:00+6wnw5656100 0.2 10111218
18:00+4nw577298 0.1 1013670
21:00+2wnw377380 0.1 1014275
20 october, wed
wed2000:00+1nw378796 0.1 1015256
03:000nw369362 0.1 1016222
06:00+1nw4684100 0.0 1017626
09:00+2nnw5667100 0.0 1019953
12:00+2nw5664100 0.0 10201072
15:00+2nw5762100 0.0 10211258
18:00+3wnw365599 0.0 1022362
21:000w36779 0.0 1023136